Page, AZ

1:23 AM MST on January 24, 2017 (GMT -0700)
Page Municipal

Weather History for KPGA - March, 2015

Change the Weather History Date:

Sunday, March 1, 2015

  Actual Average Record
Temperature  
Mean Temperature 38 °F -  
Max Temperature 39 °F 56 °F 72 °F (2016)
Min Temperature 36 °F 35 °F 18 °F (1962)
Degree Days  
Heating Degree Days 28    
Moisture  
Dew Point 34 °F    
Average Humidity 86    
Maximum Humidity 93    
Minimum Humidity 72    
Precipitation  
Precipitation 0.24 in - - ()
Sea Level Pressure  
Sea Level Pressure 30.03 in    
Wind  
Wind Speed 3 mph (West)    
Max Wind Speed 7 mph    
Max Gust Speed -    
Visibility 7 miles    
Events Rain    
Averages and records for this station are not official NWS values.
T = Trace of Precipitation, MM = Missing Value Source: NWS Daily Summary

Daily Weather History Graph

Daily Weather History Graph

Search for Another Location

Airport or City:

Trip Planner

Search our weather history database for the weather conditions in past years. The results will help you decide how hot, cold, wet, or windy it might be!

Date:

Astronomy

Mar. 01, 2015 Rise Set
Actual Time 6:56 AM MST 6:19 PM MST
Civil Twilight 6:30 AM MST 6:45 PM MST
Nautical Twilight 6:00 AM MST 7:16 PM MST
Astronomical Twilight 5:30 AM MST 7:46 PM MST
Moon 3:02 PM MST (3/1) 4:19 AM MST (3/1)
Length of Visible Light 12h 15m
Length of Day
11h 23m
Waxing Gibbous, 86% of the Moon is Illuminated
Mar 1
Waxing Gibbous
Mar 5
Full
Mar 13
Last Quarter
Mar 20
New
Mar 27
First Quarter

Hourly Weather History & Observations

Time (MST) Temp. Windchill Dew Point Humidity Pressure Visibility Wind Dir Wind Speed Gust Speed Precip Events Conditions
12:53 AM 39.0 °F 35.7 °F 33.1 °F 79% 29.94 in 10.0 mi NW 4.6 mph - N/A   Mostly Cloudy
1:53 AM 37.0 °F - 33.1 °F 86% 29.96 in 10.0 mi Calm Calm - N/A   Partly Cloudy
2:53 AM 37.9 °F 35.5 °F 33.1 °F 83% 29.95 in 10.0 mi South 3.5 mph - N/A   Overcast
3:53 AM 37.9 °F - 33.1 °F 83% 29.94 in 10.0 mi Calm Calm - N/A   Overcast
4:53 AM 39.0 °F 36.8 °F 33.1 °F 79% 29.95 in 10.0 mi NW 3.5 mph - N/A   Overcast
5:53 AM 39.0 °F 36.8 °F 34.0 °F 82% 29.98 in 10.0 mi ESE 3.5 mph - 0.00 in   Overcast
6:53 AM 39.0 °F 35.7 °F 35.1 °F 86% 30.00 in 7.0 mi WSW 4.6 mph - 0.01 in Rain Light Rain
7:46 AM 37.9 °F - 35.1 °F 89% 30.04 in 4.0 mi Calm Calm - 0.03 in Rain Light Rain
7:53 AM 37.9 °F 35.5 °F 35.1 °F 89% 30.03 in 5.0 mi Variable 3.5 mph - 0.04 in Rain Light Rain
8:05 AM 37.9 °F 35.5 °F 35.1 °F 89% 30.04 in 5.0 mi West 3.5 mph - 0.00 in Rain Light Rain
8:13 AM 37.9 °F 35.5 °F 35.1 °F 89% 30.05 in 4.0 mi West 3.5 mph - 0.01 in Rain Light Rain
8:44 AM 37.9 °F - 35.1 °F 89% 30.05 in 5.0 mi Calm Calm - 0.03 in Rain Light Rain
8:53 AM 39.0 °F 36.8 °F 35.1 °F 86% 30.04 in 6.0 mi North 3.5 mph - 0.03 in Rain Light Rain
9:03 AM 39.0 °F 34.0 °F 35.1 °F 86% 30.06 in 8.0 mi North 6.9 mph - 0.01 in Rain Light Rain
9:53 AM 39.0 °F 36.8 °F 34.0 °F 82% 30.05 in 10.0 mi NW 3.5 mph - 0.01 in   Overcast
10:51 AM 37.4 °F 34.9 °F 35.6 °F 93% 30.08 in 5.0 mi West 3.5 mph - 0.02 in Rain Light Rain
10:53 AM 37.9 °F 35.5 °F 35.1 °F 89% 30.07 in 5.0 mi West 3.5 mph - 0.02 in Rain Light Rain
11:18 AM 39.0 °F 35.7 °F 35.1 °F 86% 30.08 in 7.0 mi NW 4.6 mph - 0.01 in Rain Light Rain
11:20 AM 39.0 °F 34.8 °F 35.1 °F 86% 30.08 in 6.0 mi WNW 5.8 mph - 0.01 in Rain Light Rain
11:28 AM 39.2 °F 35.0 °F 35.6 °F 87% 30.07 in 5.0 mi Variable 5.8 mph - N/A Rain Light Rain
11:37 AM 37.9 °F 33.5 °F 35.1 °F 89% 30.07 in 5.0 mi NNW 5.8 mph - 0.02 in Rain Light Rain
11:53 AM 37.9 °F 33.5 °F 35.1 °F 89% 30.07 in 10.0 mi NNW 5.8 mph - 0.02 in Rain Light Rain
12:06 PM 39.0 °F 34.8 °F 35.1 °F 86% 30.07 in 10.0 mi NNW 5.8 mph - 0.00 in Rain Light Rain
12:53 PM 39.0 °F - 35.1 °F 86% 30.06 in 8.0 mi Calm Calm - 0.01 in Rain Light Rain
1:03 PM 39.0 °F - 35.1 °F 86% 30.06 in 5.0 mi Calm Calm - 0.01 in Rain Light Rain
1:53 PM 39.9 °F 37.8 °F 35.1 °F 83% 30.04 in 5.0 mi West 3.5 mph - 0.04 in Rain Light Rain
2:19 PM 39.0 °F 35.7 °F 35.1 °F 86% 30.04 in 6.0 mi West 4.6 mph - 0.01 in Rain Light Rain
2:37 PM 39.0 °F 36.8 °F 35.1 °F 86% 30.05 in 5.0 mi West 3.5 mph - 0.03 in Rain Light Rain
2:53 PM 39.0 °F - 35.1 °F 86% 30.03 in 4.0 mi Calm Calm - 0.04 in Rain Light Rain
3:00 PM 39.0 °F - 35.1 °F 86% 30.04 in 4.0 mi Calm Calm - 0.01 in Rain Light Rain
3:53 PM 39.0 °F - 33.1 °F 79% 30.04 in 5.0 mi Calm Calm - 0.06 in Rain Light Rain
4:19 PM 37.9 °F 35.5 °F 34.0 °F 86% 30.04 in 4.0 mi South 3.5 mph - 0.03 in Rain Light Rain
4:53 PM 37.0 °F 34.5 °F 33.1 °F 86% 30.04 in 5.0 mi WSW 3.5 mph - 0.06 in Rain Light Rain
5:11 PM 37.0 °F 34.5 °F 33.1 °F 86% 30.04 in 3.0 mi SW 3.5 mph - 0.02 in Rain Rain
5:53 PM 37.0 °F - 33.1 °F 86% 30.02 in 7.0 mi Calm Calm - 0.04 in Rain Light Rain
6:07 PM 37.0 °F 33.3 °F 33.1 °F 86% 30.04 in 6.0 mi SW 4.6 mph - 0.01 in Rain Light Rain
6:40 PM 37.0 °F 34.5 °F 33.1 °F 86% 30.03 in 7.0 mi WSW 3.5 mph - 0.02 in Rain Light Rain
6:53 PM 37.0 °F 34.5 °F 33.1 °F 86% 30.03 in 7.0 mi WSW 3.5 mph - 0.03 in Rain Light Rain
7:32 PM 36.0 °F - 33.1 °F 89% 30.02 in 5.0 mi Calm Calm - 0.02 in Rain Light Rain
7:53 PM 37.0 °F - 33.1 °F 86% 30.02 in 7.0 mi Calm Calm - 0.03 in Rain Light Rain
8:11 PM 37.0 °F - 34.0 °F 89% 30.02 in 8.0 mi Calm Calm - 0.00 in Rain Light Rain
8:18 PM 37.0 °F - 34.0 °F 89% 30.02 in 9.0 mi Calm Calm - 0.00 in Rain Light Rain
8:33 PM 37.0 °F 34.5 °F 34.0 °F 89% 30.02 in 7.0 mi WSW 3.5 mph - 0.00 in Rain Light Rain
8:53 PM 36.0 °F - 33.1 °F 89% 30.02 in 5.0 mi Calm Calm - 0.01 in Rain Light Rain
9:07 PM 36.0 °F 31.1 °F 33.1 °F 89% 30.02 in 7.0 mi WSW 5.8 mph - 0.01 in Rain Light Rain
9:43 PM 36.0 °F 32.1 °F 33.1 °F 89% 30.01 in 9.0 mi WSW 4.6 mph - 0.02 in Rain Light Rain
9:53 PM 36.0 °F 32.1 °F 33.1 °F 89% 30.01 in 10.0 mi WSW 4.6 mph - 0.02 in Rain Light Rain
10:53 PM 36.0 °F 32.1 °F 33.1 °F 89% 30.01 in 10.0 mi WSW 4.6 mph - 0.00 in   Overcast
11:11 PM 36.0 °F 32.1 °F 33.1 °F 89% 30.00 in 10.0 mi WSW 4.6 mph - N/A   Overcast
11:53 PM 37.0 °F - 33.1 °F 86% 29.98 in 10.0 mi Calm Calm - N/A   Overcast